Regional Weather Roundup
Issued by NWS

Home | Current Version | Previous Version | Graphics & Text | Print | Product List | Glossary On
Versions: 1 2 3 4 5 6 7 8 9 10 11 12 13 14 15 16 17 18 19 20 21 22 23 24 25 26 27 28 29 30 31 32 33 34 35 36 37 38 39 40 41 42 43 44 45 46 47 48 49 50
071
ASUS43 KFSD 220210
RWRSD

WEATHER ROUNDUP FOR SOUTH DAKOTA
NATIONAL WEATHER SERVICE SIOUX FALLS SD
900 PM CDT THU MAY 21 2015

NOTE: "FAIR" INDICATES FEW OR NO CLOUDS BELOW 12,000 FEET WITH NO
SIGNIFICANT WEATHER AND/OR OBSTRUCTIONS TO VISIBILITY.


SDZ001>005-009-010-012>017-220300-
NORTHWEST AND NORTH CENTRAL SOUTH DAKOTA

CITY           SKY/WX    TMP DP  RH WIND       PRES   REMARKS
BUFFALO          N/A     59  30  33 SE14      30.05R
FAITH            N/A     57  34  41 S8        30.13R
MOBRIDGE       CLEAR     65  40  39 SW6       30.09R
$$

SDZ012>016-024>037-041>051-057-063-072>074-220300-
SOUTHWEST AND SOUTH CENTRAL SOUTH DAKOTA

CITY           SKY/WX    TMP DP  RH WIND       PRES   REMARKS
RAPID CTY ARPT MOCLDY    56  43  61 S8        30.13R
PIERRE         CLEAR     63  35  35 S7        30.12R
CUSTER         CLOUDY    47  37  68 SE5       30.16S
ELLSWORTH AFB  PTCLDY    58  43  57 S7        30.12R
PHILIP         CLEAR     59  35  40 SE8       30.13R
PINE RIDGE     CLOUDY    56  43  61 SE6       30.13F
SPEARFISH      FAIR      54  37  54 SE13G18   30.11R
WINNER         FAIR      63  34  33 S6        30.16R
$$

SDZ004>011-016>023-039-040-220300-
NORTHEAST SOUTH DAKOTA

CITY           SKY/WX    TMP DP  RH WIND       PRES   REMARKS
ABERDEEN       CLEAR     67  41  38 NE3       30.10R
WATERTOWN      CLEAR     59  39  47 NE6       30.11R
BROOKINGS      CLEAR     64  36  34 N6        30.12S
SISSETON         N/A     60  33  36 E5        30.10R
$$

SDZ017-020-022-023-036>040-048>070-220300-
SOUTHEAST SOUTH DAKOTA

CITY           SKY/WX    TMP DP  RH WIND       PRES   REMARKS
SIOUX FALLS    PTCLDY    62  37  39 NW3       30.11R
HURON          MOCLDY    67  39  35 CALM      30.10R
CHAMBERLAIN    CLEAR     57  41  54 SW7       30.14S
MITCHELL       CLEAR     67  37  33 W6        30.12S
YANKTON        CLEAR     63  39  42 W8        30.13R
$$

ABBREVIATIONS USED IN REMARKS
   TC - TEMPERATURE IN CELSIUS
  WCI - WIND CHILL INDEX
   HX - HEAT INDEX
  VSB - VISIBILITY




USA.gov is the U.S. government's official web portal to all federal, state and local government web resources and services.